Greenville, MS

8:56 PM CDT on July 24, 2017 (GMT -0500)
Mid Delta Regional

Weather History for KGLH - October, 2011

Change the Weather History Date:

Tuesday, October 18, 2011

  Actual Average Record
Temperature  
Mean Temperature 58 °F 64 °F  
Max Temperature 68 °F 76 °F 91 °F (1953)
Min Temperature 47 °F 52 °F 32 °F (1948)
Degree Days  
Heating Degree Days 7 4  
Month to date heating degree days 22 38  
Since 1 July heating degree days 24 44  
Cooling Degree Days 0 3  
Month to date cooling degree days 54 68  
Year to date cooling degree days 2431 2148  
Growing Degree Days 9 (Base 50)    
Moisture  
Dew Point 52 °F    
Average Humidity 83    
Maximum Humidity 93    
Minimum Humidity 73    
Precipitation  
Precipitation 0.20 in 0.15 in 2.95 in (1937)
Month to date precipitation 0.23 2.62  
Year to date precipitation 22.05 40.26  
Sea Level Pressure  
Sea Level Pressure 29.78 in    
Wind  
Wind Speed 14 mph (NNW)    
Max Wind Speed 30 mph    
Max Gust Speed 37 mph    
Visibility 8 miles    
Events Rain    
T = Trace of Precipitation, MM = Missing Value Source: NWS Daily Summary

Daily Weather History Graph

Daily Weather History Graph

Search for Another Location

Airport or City:

Trip Planner

Search our weather history database for the weather conditions in past years. The results will help you decide how hot, cold, wet, or windy it might be!

Date:

Astronomy

Oct. 18, 2011 Rise Set
Actual Time 7:10 AM CDT 6:27 PM CDT
Civil Twilight 6:45 AM CDT 6:52 PM CDT
Nautical Twilight 6:16 AM CDT 7:21 PM CDT
Astronomical Twilight 5:47 AM CDT 7:49 PM CDT
Moon 11:18 PM CDT (10/18) 12:51 PM CDT (10/18)
Length of Visible Light 12h 06m
Length of Day
11h 16m
Waning Gibbous, 64% of the Moon is Illuminated
Oct 18
Waning Gibbous
Oct 19
Last Quarter
Oct 26
New
Nov 2
First Quarter
Nov 10
Full

Hourly Weather History & Observations

Time (CDT) Temp. Dew Point Humidity Pressure Visibility Wind Dir Wind Speed Gust Speed Precip Events Conditions
12:53 AM 64.9 °F 55.9 °F 73% 29.75 in 10.0 mi Calm Calm - N/A   Clear
1:53 AM 64.0 °F 55.9 °F 75% 29.75 in 10.0 mi Calm Calm - N/A   Clear
2:53 AM 61.0 °F 55.9 °F 83% 29.75 in 10.0 mi West 3.5 mph - N/A   Clear
3:53 AM 61.0 °F 57.0 °F 87% 29.73 in 10.0 mi Calm Calm - N/A   Clear
4:53 AM 61.0 °F 57.0 °F 87% 29.74 in 10.0 mi NW 15.0 mph - N/A   Scattered Clouds
5:45 AM 68.0 °F 60.8 °F 78% 29.73 in 10.0 mi NW 8.1 mph - N/A   Overcast
5:53 AM 68.0 °F 61.0 °F 78% 29.75 in 10.0 mi NW 6.9 mph - N/A   Mostly Cloudy
6:53 AM 66.0 °F 60.1 °F 81% 29.74 in 10.0 mi NNW 8.1 mph - N/A   Overcast
7:53 AM 66.0 °F 59.0 °F 78% 29.75 in 10.0 mi NW 11.5 mph - N/A   Overcast
8:17 AM 64.4 °F 60.8 °F 88% 29.74 in 1.8 mi NNW 10.4 mph - 0.06 in Rain Heavy Rain
8:27 AM 62.6 °F 60.8 °F 94% 29.71 in 1.2 mi NNE 10.4 mph - 0.13 in Rain Heavy Rain
8:32 AM 62.6 °F 60.8 °F 94% 29.70 in 3.0 mi NE 12.7 mph - 0.15 in Rain Rain
8:51 AM 62.6 °F 60.8 °F 94% 29.70 in 9.0 mi NNE 8.1 mph - 0.17 in Rain Light Rain
8:53 AM 63.0 °F 61.0 °F 93% 29.72 in 10.0 mi NNE 8.1 mph - 0.17 in Rain Light Rain
9:43 AM 64.4 °F 62.6 °F 94% 29.73 in 10.0 mi North 12.7 mph 18.4 mph 0.01 in   Mostly Cloudy
9:53 AM 62.1 °F 60.1 °F 93% 29.75 in 8.0 mi NNE 12.7 mph - 0.01 in   Overcast
10:06 AM 60.8 °F 57.2 °F 88% 29.72 in 6.0 mi North 13.8 mph - 0.00 in Rain Light Rain
10:53 AM 59.0 °F 57.0 °F 93% 29.75 in 9.0 mi NNW 17.3 mph - 0.01 in   Overcast
11:09 AM 57.2 °F 57.2 °F 100% 29.74 in 8.0 mi NNW 18.4 mph - N/A   Overcast
11:53 AM 53.6 °F 51.8 °F 94% 29.75 in 10.0 mi NNW 20.7 mph 29.9 mph N/A   Overcast
12:53 PM 51.1 °F 48.0 °F 89% 29.80 in 10.0 mi NNW 25.3 mph 31.1 mph N/A   Overcast
1:06 PM 51.8 °F 48.2 °F 88% 29.77 in 10.0 mi NNW 23.0 mph 27.6 mph N/A   Overcast
1:45 PM 50.0 °F 48.2 °F 94% 29.78 in 4.0 mi NNW 24.2 mph 31.1 mph 0.00 in Rain Light Rain
1:53 PM 50.0 °F 48.9 °F 96% 29.80 in 2.5 mi North 24.2 mph 31.1 mph 0.00 in Rain Light Rain
2:01 PM 50.0 °F 48.2 °F 94% 29.78 in 1.8 mi North 23.0 mph 29.9 mph N/A   Overcast
2:16 PM 50.0 °F 48.2 °F 94% 29.78 in 2.0 mi NNW 23.0 mph - 0.01 in   Overcast
2:24 PM 50.0 °F 48.2 °F 94% 29.79 in 2.5 mi NNW 23.0 mph 28.8 mph 0.01 in Rain Light Rain
2:31 PM 50.0 °F 48.2 °F 94% 29.78 in 3.0 mi NNW 21.9 mph - 0.01 in Rain Light Rain
2:39 PM 50.0 °F 48.2 °F 94% 29.79 in 5.0 mi NNW 25.3 mph - 0.01 in Rain Light Rain
2:48 PM 51.8 °F 48.2 °F 88% 29.79 in 10.0 mi NNW 23.0 mph 32.2 mph 0.01 in   Overcast
2:53 PM 51.1 °F 48.9 °F 92% 29.81 in 8.0 mi NNW 24.2 mph 29.9 mph 0.01 in   Overcast
3:02 PM 50.0 °F 48.2 °F 94% 29.79 in 4.0 mi NNW 24.2 mph 28.8 mph 0.00 in Rain Light Rain
3:21 PM 51.8 °F 48.2 °F 88% 29.79 in 5.0 mi NNW 25.3 mph 29.9 mph 0.00 in Rain Light Rain
3:49 PM 51.8 °F 48.2 °F 88% 29.80 in 10.0 mi North 23.0 mph 32.2 mph 0.00 in   Overcast
3:53 PM 51.1 °F 48.0 °F 89% 29.82 in 10.0 mi NNW 21.9 mph 32.2 mph 0.00 in   Overcast
4:53 PM 50.0 °F 46.0 °F 86% 29.84 in 10.0 mi NNW 24.2 mph 33.4 mph N/A   Overcast
5:53 PM 50.0 °F 46.0 °F 86% 29.88 in 10.0 mi NNW 24.2 mph 28.8 mph N/A   Overcast
6:53 PM 50.0 °F 44.1 °F 80% 29.89 in 10.0 mi NNW 23.0 mph 33.4 mph N/A   Overcast
7:53 PM 50.0 °F 42.8 °F 76% 29.89 in 10.0 mi NNW 17.3 mph - N/A   Overcast
8:53 PM 50.0 °F 44.1 °F 80% 29.91 in 10.0 mi NNW 15.0 mph - N/A   Overcast
9:53 PM 50.0 °F 44.1 °F 80% 29.90 in 10.0 mi NW 11.5 mph - N/A   Overcast
10:53 PM 50.0 °F 45.0 °F 83% 29.90 in 10.0 mi NW 11.5 mph - 0.00 in   Mostly Cloudy
11:53 PM 48.9 °F 45.0 °F 86% 29.90 in 10.0 mi WNW 10.4 mph - N/A   Mostly Cloudy